Вернуться в каталог

BREEZE-M DEB

LostHEO
NORAD 38564·DEBRIS·🇷🇺 Russia

Запущен Feb 28, 2006 с Baikonur Cosmodrome

Loading…

Ближайшие Пролёты (ближайшие 24 часа)

TLE

УстаревшееSource: Space-Track

Эпоха: Jan 27, 2017, 04:17 UTC

1 38564U 06006DE  17027.17904237 -.00000038 +00000-0 +00000-0 0  9990
2 38564 051.6905 083.3323 5045808 013.0806 356.3999 05.31536711107581

Отслеживайте BREEZE-M DEB в реальном времени с AllMySat

Download on the App Store